Charleston, WV

4:35 AM EDT on April 23, 2018 (GMT -0400)
Yeager Airport

Weather History for KCRW - March, 2013

Change the Weather History Date:

Thursday, March 28, 2013

  Actual Average Record
Temperature  
Mean Temperature 41 °F 50 °F  
Max Temperature 51 °F 61 °F 86 °F (1989)
Min Temperature 30 °F 39 °F 15 °F (1947)
Degree Days  
Heating Degree Days 24 15  
Month to date heating degree days 721 555  
Since 1 July heating degree days 4104 4009  
Cooling Degree Days 0 0  
Month to date cooling degree days 0 0  
Year to date cooling degree days 0 0  
Moisture  
Dew Point 23 °F    
Average Humidity 56    
Maximum Humidity 78    
Minimum Humidity 34    
Precipitation  
Precipitation 0.00 in 0.12 in 1.79 in (1932)
Month to date precipitation 3.00 3.56  
Year to date precipitation 9.03 9.75  
Snow  
Snow 0.00 in 0.10 in 1.00 in (2015)
Month to date snowfall 2.5 5.5  
Since 1 September snowfall 25.3 34.7  
Snow Depth 0.00 in    
Sea Level Pressure  
Sea Level Pressure 30.29 in    
Wind  
Wind Speed 6 mph (West)    
Max Wind Speed 17 mph    
Max Gust Speed 24 mph    
Visibility 10 miles    
Events      
T = Trace of Precipitation, MM = Missing Value Source: NWS Daily Summary

Daily Weather History Graph

Daily Weather History Graph

Search for Another Location

Airport or City:

Astronomy

Mar. 28, 2013 Rise Set
Actual Time 7:17 AM EDT 7:46 PM EDT
Civil Twilight 6:50 AM EDT 8:12 PM EDT
Nautical Twilight 6:19 AM EDT 8:43 PM EDT
Astronomical Twilight 5:47 AM EDT 9:15 PM EDT
Moon 9:34 PM EDT (3/28) 7:45 AM EDT (3/28)
Length of Visible Light 13h 22m
Length of Day
12h 29m
Full, 98% of the Moon is Illuminated
Mar 28
Full
Apr 3
Last Quarter
Apr 10
New
Apr 18
First Quarter
Apr 25
Full

Hourly Weather History & Observations

Time (EDT) Temp. Windchill Dew Point Humidity Pressure Visibility Wind Dir Wind Speed Gust Speed Precip Events Conditions
12:54 AM 37.0 °F 31.6 °F 28.0 °F 70% 30.27 in 10.0 mi WSW 6.9 mph - N/A   Overcast
1:54 AM 36.0 °F 31.1 °F 27.0 °F 70% 30.27 in 10.0 mi WSW 5.8 mph - N/A   Overcast
2:54 AM 36.0 °F 31.1 °F 27.0 °F 70% 30.27 in 10.0 mi WSW 5.8 mph - N/A   Mostly Cloudy
3:54 AM 35.1 °F 31.0 °F 26.1 °F 70% 30.26 in 10.0 mi WSW 4.6 mph - N/A   Mostly Cloudy
4:54 AM 34.0 °F 28.8 °F 24.1 °F 67% 30.26 in 10.0 mi WSW 5.8 mph - N/A   Clear
5:54 AM 33.1 °F 27.7 °F 24.1 °F 70% 30.27 in 10.0 mi WSW 5.8 mph - N/A   Clear
6:54 AM 32.0 °F 26.4 °F 24.1 °F 73% 30.28 in 10.0 mi West 5.8 mph - N/A   Clear
7:54 AM 30.9 °F 25.2 °F 24.1 °F 76% 30.30 in 10.0 mi WSW 5.8 mph - N/A   Partly Cloudy
8:54 AM 34.0 °F 29.8 °F 24.1 °F 67% 30.31 in 10.0 mi Variable 4.6 mph - N/A   Partly Cloudy
9:54 AM 37.0 °F 34.5 °F 23.0 °F 57% 30.32 in 10.0 mi West 3.5 mph - N/A   Clear
10:54 AM 39.9 °F 33.4 °F 21.0 °F 47% 30.32 in 10.0 mi WNW 10.4 mph 16.1 mph N/A   Partly Cloudy
11:36 AM 42.8 °F 36.6 °F 23.0 °F 46% 30.30 in 10.0 mi West 11.5 mph 24.2 mph N/A   Partly Cloudy
11:54 AM 43.0 °F 36.0 °F 23.0 °F 45% 30.31 in 10.0 mi WNW 13.8 mph 19.6 mph N/A   Scattered Clouds
12:54 PM 45.0 °F 42.6 °F 23.0 °F 42% 30.30 in 10.0 mi Variable 4.6 mph 19.6 mph N/A   Mostly Cloudy
1:54 PM 46.0 °F 40.6 °F 21.0 °F 37% 30.30 in 10.0 mi NW 11.5 mph 24.2 mph N/A   Mostly Cloudy
2:54 PM 46.0 °F 43.9 °F 21.0 °F 37% 30.28 in 10.0 mi Variable 4.6 mph 16.1 mph N/A   Mostly Cloudy
3:54 PM 48.0 °F - 21.0 °F 34% 30.26 in 10.0 mi WNW 11.5 mph 21.9 mph N/A   Mostly Cloudy
4:54 PM 48.0 °F - 21.0 °F 34% 30.26 in 10.0 mi WNW 9.2 mph 17.3 mph N/A   Mostly Cloudy
5:54 PM 48.0 °F - 21.0 °F 34% 30.26 in 10.0 mi NW 8.1 mph 18.4 mph N/A   Mostly Cloudy
6:54 PM 46.9 °F - 21.0 °F 36% 30.27 in 10.0 mi NW 5.8 mph - N/A   Mostly Cloudy
7:54 PM 46.0 °F 43.9 °F 21.0 °F 37% 30.28 in 10.0 mi NNW 4.6 mph - N/A   Scattered Clouds
8:54 PM 45.0 °F 42.6 °F 21.0 °F 39% 30.29 in 10.0 mi NW 4.6 mph - N/A   Clear
9:54 PM 43.0 °F - 21.9 °F 43% 30.30 in 10.0 mi Calm Calm - N/A   Clear
10:54 PM 39.0 °F - 23.0 °F 53% 30.31 in 10.0 mi Calm Calm - N/A   Clear
11:54 PM 36.0 °F - 25.0 °F 64% 30.31 in 10.0 mi Calm Calm - N/A   Clear